| time (UTC) | temp C | wind direction | speed KPH | gust KPH | rain 1hr cm | rain 24hr cm | rain mn cm | humidity % | barometer mb |
| 20260831204028 | 33 | 283 | 3.2 | 6.4 | 0.00 | 0.00 | 0.00 | 52 | 1019.4 |
| 20260831203528 | 33 | 327 | 0.0 | 4.8 | 0.00 | 0.00 | 0.00 | 51 | 1019.5 |
| 20260831203027 | 33 | 285 | 0.0 | 3.2 | 0.00 | 0.00 | 0.00 | 53 | 1019.4 |
| 20260831202521 | 33 | 109 | 0.0 | 1.6 | 0.00 | 0.00 | 0.00 | 51 | 1019.4 |
| 20260831202021 | 33 | 283 | 3.2 | 4.8 | 0.00 | 0.00 | 0.00 | 53 | 1019.4 |
| 20260831201520 | 33 | 157 | 3.2 | 3.2 | 0.00 | 0.00 | 0.00 | 52 | 1019.1 |
| 20260831201016 | 33 | 230 | 3.2 | 8.0 | 0.00 | 0.00 | 0.00 | 50 | 1019.2 |
| 20260831200511 | 33 | 235 | 4.8 | 6.4 | 0.00 | 0.00 | 0.00 | 53 | 1019.2 |
| 20260831200006 | 33 | 254 | 0.0 | 4.8 | 0.00 | 0.00 | 0.00 | 51 | 1019.6 |
| 20260831195502 | 33 | 238 | 1.6 | 8.0 | 0.00 | 0.00 | 0.00 | 50 | 1019.7 |
| 20260831195001 | 33 | 130 | 3.2 | 6.4 | 0.00 | 0.00 | 0.00 | 49 | 1019.5 |
| 20260831194457 | 33 | 205 | 1.6 | 6.4 | 0.00 | 0.00 | 0.00 | 51 | 1019.6 |
| 20260831193956 | 33 | 290 | 3.2 | 8.0 | 0.00 | 0.00 | 0.00 | 49 | 1019.6 |
| 20260831193452 | 33 | 170 | 4.8 | 6.4 | 0.00 | 0.00 | 0.00 | 48 | 1019.6 |
| 20260831192947 | 34 | 293 | 3.2 | 8.0 | 0.00 | 0.00 | 0.00 | 47 | 1019.5 |
| 20260831192442 | 34 | 134 | 0.0 | 4.8 | 0.00 | 0.00 | 0.00 | 49 | 1019.6 |
| 20260831191937 | 33 | 228 | 6.4 | 6.4 | 0.00 | 0.00 | 0.00 | 49 | 1019.5 |
| 20260831191433 | 33 | 200 | 1.6 | 6.4 | 0.00 | 0.00 | 0.00 | 51 | 1019.8 |
| 20260831190929 | 33 | 247 | 4.8 | 4.8 | 0.00 | 0.00 | 0.00 | 50 | 1019.6 |
| 20260831190424 | 32 | 153 | 1.6 | 3.2 | 0.00 | 0.00 | 0.00 | 53 | 1019.8 |
| 20260831185923 | 33 | 276 | 3.2 | 4.8 | 0.00 | 0.00 | 0.00 | 50 | 1019.9 |
| 20260831185419 | 33 | 212 | 4.8 | 6.4 | 0.00 | 0.00 | 0.00 | 48 | 1020.0 |
| 20260831184918 | 34 | 245 | 4.8 | 6.4 | 0.00 | 0.00 | 0.00 | 47 | 1019.9 |
| 20260831184413 | 33 | 196 | 3.2 | 4.8 | 0.00 | 0.00 | 0.00 | 49 | 1020.0 |
| 20260831183908 | 33 | 233 | 4.8 | 8.0 | 0.00 | 0.00 | 0.00 | 48 | 1020.1 |
| 20260831183408 | 33 | 329 | 0.0 | 4.8 | 0.00 | 0.00 | 0.00 | 51 | 1020.0 |
| 20260831182907 | 33 | 203 | 1.6 | 6.4 | 0.00 | 0.00 | 0.00 | 50 | 1020.2 |
| 20260831182403 | 33 | 176 | 0.0 | 4.8 | 0.00 | 0.00 | 0.00 | 50 | 1020.3 |
| 20260831181858 | 32 | 119 | 0.0 | 6.4 | 0.00 | 0.00 | 0.00 | 52 | 1020.2 |
| 20260831181353 | 32 | 207 | 4.8 | 6.4 | 0.00 | 0.00 | 0.00 | 52 | 1020.1 |
| 20260831180848 | 32 | 162 | 1.6 | 6.4 | 0.00 | 0.00 | 0.00 | 51 | 1020.4 |
| 20260831180342 | 32 | 154 | 3.2 | 4.8 | 0.00 | 0.00 | 0.00 | 54 | 1020.4 |
| 20260831175841 | 32 | 241 | 1.6 | 6.4 | 0.00 | 0.00 | 0.00 | 54 | 1020.3 |
| 20260831175338 | 32 | 279 | 8.0 | 8.0 | 0.00 | 0.00 | 0.00 | 53 | 1020.5 |
| 20260831174835 | 32 | 299 | 0.0 | 3.2 | 0.00 | 0.00 | 0.00 | 54 | 1020.3 |
| 20260831174330 | 32 | 223 | 8.0 | 8.0 | 0.00 | 0.00 | 0.00 | 55 | 1020.4 |
| 20260831173829 | 32 | 208 | 6.4 | 6.4 | 0.00 | 0.00 | 0.00 | 56 | 1020.5 |
| 20260831173328 | 32 | 269 | 3.2 | 4.8 | 0.00 | 0.00 | 0.00 | 55 | 1020.8 |
| 20260831172823 | 32 | 166 | 1.6 | 6.4 | 0.00 | 0.00 | 0.00 | 53 | 1020.8 |
| 20260831172319 | 32 | 273 | 6.4 | 6.4 | 0.00 | 0.00 | 0.00 | 54 | 1020.8 |
| 20260831171819 | 32 | 259 | 1.6 | 3.2 | 0.00 | 0.00 | 0.00 | 57 | 1020.7 |
| 20260831171315 | 31 | 121 | 0.0 | 4.8 | 0.00 | 0.00 | 0.00 | 57 | 1020.6 |
| 20260831170812 | 31 | 207 | 1.6 | 4.8 | 0.00 | 0.00 | 0.00 | 57 | 1020.8 |
| 20260831170308 | 31 | 357 | 3.2 | 4.8 | 0.00 | 0.00 | 0.00 | 56 | 1020.8 |
| 20260831165804 | 31 | 220 | 3.2 | 6.4 | 0.00 | 0.00 | 0.00 | 56 | 1020.8 |
| 20260831165300 | 31 | 214 | 4.8 | 8.0 | 0.00 | 0.00 | 0.00 | 57 | 1020.6 |
| 20260831164756 | 31 | 258 | 1.6 | 6.4 | 0.00 | 0.00 | 0.00 | 57 | 1020.6 |
| 20260831164252 | 31 | 216 | 1.6 | 6.4 | 0.00 | 0.00 | 0.00 | 57 | 1020.8 |
| 20260831163747 | 31 | 247 | 8.0 | 8.0 | 0.00 | 0.00 | 0.00 | 62 | 1020.9 |
| 20260831163243 | 31 | 263 | 0.0 | 4.8 | 0.00 | 0.00 | 0.00 | 61 | 1020.9 |
| 20260831162741 | 31 | 277 | 3.2 | 3.2 | 0.00 | 0.00 | 0.00 | 62 | 1021.0 |
| 20260831162236 | 30 | 134 | 0.0 | 4.8 | 0.00 | 0.00 | 0.00 | 65 | 1020.8 |
| 20260831161730 | 31 | 15 | 0.0 | 4.8 | 0.00 | 0.00 | 0.00 | 61 | 1021.3 |
| 20260831161227 | 31 | 292 | 1.6 | 4.8 | 0.00 | 0.00 | 0.00 | 60 | 1021.2 |
| 20260831160726 | 31 | 144 | 0.0 | 4.8 | 0.00 | 0.00 | 0.00 | 62 | 1020.9 |
| 20260831160222 | 30 | 224 | 4.8 | 4.8 | 0.00 | 0.00 | 0.00 | 63 | 1021.2 |
| 20260831155721 | 30 | 225 | 3.2 | 6.4 | 0.00 | 0.00 | 0.00 | 63 | 1021.3 |
| 20260831155216 | 30 | 204 | 3.2 | 6.4 | 0.00 | 0.00 | 0.00 | 61 | 1021.2 |
| 20260831154712 | 30 | 299 | 0.0 | 3.2 | 0.00 | 0.00 | 0.00 | 65 | 1021.1 |
| 20260831154209 | 30 | 262 | 0.0 | 3.2 | 0.00 | 0.00 | 0.00 | 66 | 1021.0 |
| 20260831153707 | 30 | 159 | 0.0 | 1.6 | 0.00 | 0.00 | 0.00 | 66 | 1021.0 |
| 20260831153203 | 30 | 323 | 0.0 | 0.0 | 0.00 | 0.00 | 0.00 | 65 | 1021.1 |
| 20260831152659 | 30 | 174 | 0.0 | 4.8 | 0.00 | 0.00 | 0.00 | 65 | 1021.1 |
| 20260831152155 | 30 | 224 | 1.6 | 4.8 | 0.00 | 0.00 | 0.00 | 66 | 1021.2 |
| 20260831151654 | 30 | 193 | 3.2 | 6.4 | 0.00 | 0.00 | 0.00 | 67 | 1021.2 |
| 20260831151148 | 30 | 283 | 1.6 | 3.2 | 0.00 | 0.00 | 0.00 | 68 | 1021.3 |
| 20260831150644 | 30 | 245 | 4.8 | 6.4 | 0.00 | 0.00 | 0.00 | 68 | 1021.3 |
| 20260831150139 | 29 | 247 | 0.0 | 3.2 | 0.00 | 0.00 | 0.00 | 71 | 1021.1 |
| 20260831145638 | 28 | 167 | 0.0 | 1.6 | 0.00 | 0.00 | 0.00 | 72 | 1021.0 |
| 20260831145135 | 28 | 299 | 0.0 | 4.8 | 0.00 | 0.00 | 0.00 | 71 | 1021.2 |
| 20260831144631 | 28 | 268 | 1.6 | 4.8 | 0.00 | 0.00 | 0.00 | 71 | 1021.3 |
| 20260831144126 | 28 | 143 | 0.0 | 4.8 | 0.00 | 0.00 | 0.00 | 71 | 1021.0 |
| 20260831143625 | 28 | 259 | 0.0 | 4.8 | 0.00 | 0.00 | 0.00 | 72 | 1021.1 |
| 20260831143121 | 29 | 80 | 0.0 | 4.8 | 0.00 | 0.00 | 0.00 | 70 | 1021.0 |
| 20260831142618 | 29 | 177 | 0.0 | 1.6 | 0.00 | 0.00 | 0.00 | 70 | 1021.2 |
| 20260831142113 | 29 | 211 | 1.6 | 4.8 | 0.00 | 0.00 | 0.00 | 69 | 1021.2 |
| 20260831141611 | 28 | 212 | 1.6 | 4.8 | 0.00 | 0.00 | 0.00 | 71 | 1021.1 |
| 20260831141107 | 28 | 261 | 3.2 | 4.8 | 0.00 | 0.00 | 0.00 | 72 | 1021.3 |
| 20260831140606 | 28 | 237 | 3.2 | 3.2 | 0.00 | 0.00 | 0.00 | 74 | 1021.4 |
| 20260831140101 | 27 | 282 | 4.8 | 4.8 | 0.00 | 0.00 | 0.00 | 74 | 1021.1 |
| 20260831135558 | 27 | 286 | 1.6 | 4.8 | 0.00 | 0.00 | 0.00 | 77 | 1021.3 |
| 20260831135055 | 26 | 75 | 0.0 | 6.4 | 0.00 | 0.00 | 0.00 | 78 | 1021.2 |
| 20260831134550 | 26 | 201 | 3.2 | 4.8 | 0.00 | 0.00 | 0.00 | 79 | 1021.2 |
| 20260831134045 | 26 | 101 | 3.2 | 6.4 | 0.00 | 0.00 | 0.00 | 78 | 1021.3 |
| 20260831133544 | 26 | 164 | 0.0 | 4.8 | 0.00 | 0.00 | 0.00 | 80 | 1021.1 |
| 20260831133039 | 26 | 231 | 3.2 | 4.8 | 0.00 | 0.00 | 0.00 | 81 | 1021.4 |
| 20260831132536 | 26 | 192 | 1.6 | 3.2 | 0.00 | 0.00 | 0.00 | 82 | 1021.3 |
| 20260831132034 | 25 | 166 | 0.0 | 3.2 | 0.00 | 0.00 | 0.00 | 82 | 1021.1 |
| 20260831131529 | 25 | 139 | 1.6 | 4.8 | 0.00 | 0.00 | 0.00 | 84 | 1021.2 |
| 20260831131025 | 25 | 119 | 0.0 | 3.2 | 0.00 | 0.00 | 0.00 | 84 | 1021.1 |
| 20260831130520 | 25 | 111 | 0.0 | 3.2 | 0.00 | 0.00 | 0.00 | 84 | 1021.2 |
| 20260831130016 | 25 | 78 | 0.0 | 3.2 | 0.00 | 0.00 | 0.00 | 84 | 1021.1 |
| 20260831125509 | 25 | 206 | 0.0 | 3.2 | 0.00 | 0.00 | 0.00 | 84 | 1021.2 |
| 20260831125004 | 25 | 159 | 0.0 | 1.6 | 0.00 | 0.00 | 0.00 | 85 | 1021.4 |
| 20260831124501 | 25 | 139 | 1.6 | 4.8 | 0.00 | 0.00 | 0.00 | 85 | 1021.4 |
| 20260831123956 | 25 | 168 | 1.6 | 4.8 | 0.00 | 0.00 | 0.00 | 86 | 1021.2 |
| 20260831123455 | 25 | 199 | 1.6 | 3.2 | 0.00 | 0.00 | 0.00 | 85 | 1021.3 |
| 20260831122949 | 25 | 207 | 1.6 | 3.2 | 0.00 | 0.00 | 0.00 | 86 | 1021.2 |
| 20260831122445 | 25 | 149 | 1.6 | 4.8 | 0.00 | 0.00 | 0.00 | 87 | 1021.2 |
| 20260831121940 | 24 | 199 | 0.0 | 1.6 | 0.00 | 0.00 | 0.00 | 88 | 1021.2 |
| 20260831121436 | 23 | 161 | 1.6 | 3.2 | 0.00 | 0.00 | 0.00 | 90 | 1021.2 |
| 20260831120931 | 23 | 188 | 1.6 | 1.6 | 0.00 | 0.00 | 0.00 | 93 | 1021.0 |
| 20260831120426 | 22 | 216 | 0.0 | 1.6 | 0.00 | 0.00 | 0.00 | 96 | 1020.9 |
| 20260831115926 | 22 | 168 | 1.6 | 1.6 | 0.00 | 0.00 | 0.00 | 97 | 1020.6 |
| 20260831115422 | 22 | 67 | 0.0 | 1.6 | 0.00 | 0.00 | 0.00 | 98 | 1020.8 |
| 20260831114921 | 22 | 172 | 0.0 | 0.0 | 0.00 | 0.00 | 0.00 | 98 | 1020.9 |
| 20260831114420 | 21 | 164 | 0.0 | 1.6 | 0.00 | 0.00 | 0.00 | 98 | 1020.9 |
| 20260831113916 | 21 | 154 | 0.0 | 1.6 | 0.00 | 0.00 | 0.00 | 98 | 1021.1 |
| 20260831113411 | 21 | 159 | 0.0 | 0.0 | 0.00 | 0.00 | 0.00 | 98 | 1020.7 |
| 20260831112906 | 21 | 139 | 3.2 | 3.2 | 0.00 | 0.00 | 0.00 | 98 | 1020.9 |
| 20260831112406 | 21 | 119 | 0.0 | 1.6 | 0.00 | 0.00 | 0.00 | 98 | 1020.7 |
| 20260831111901 | 21 | 193 | 0.0 | 0.0 | 0.00 | 0.00 | 0.00 | 98 | 1020.6 |
| 20260831111357 | 21 | 147 | 0.0 | 1.6 | 0.00 | 0.00 | 0.00 | 98 | 1020.6 |
| 20260831110852 | 21 | 92 | 0.0 | 1.6 | 0.00 | 0.00 | 0.00 | 98 | 1020.8 |
| 20260831110346 | 21 | 141 | 1.6 | 3.2 | 0.00 | 0.00 | 0.00 | 98 | 1020.5 |
| 20260831105845 | 21 | 159 | 0.0 | 1.6 | 0.00 | 0.00 | 0.00 | 97 | 1020.4 |
| 20260831105341 | 21 | 119 | 0.0 | 1.6 | 0.00 | 0.00 | 0.00 | 97 | 1020.6 |
| 20260831104836 | 21 | 166 | 1.6 | 3.2 | 0.00 | 0.00 | 0.00 | 97 | 1020.5 |
| 20260831104332 | 21 | 80 | 0.0 | 1.6 | 0.00 | 0.00 | 0.00 | 97 | 1020.5 |
| 20260831103832 | 21 | 164 | 0.0 | 3.2 | 0.00 | 0.00 | 0.00 | 97 | 1020.6 |
| 20260831103328 | 21 | 163 | 0.0 | 1.6 | 0.00 | 0.00 | 0.00 | 97 | 1020.4 |
| 20260831102828 | 21 | 172 | 1.6 | 3.2 | 0.00 | 0.00 | 0.00 | 97 | 1020.6 |
| 20260831102323 | 21 | 166 | 1.6 | 1.6 | 0.00 | 0.00 | 0.00 | 97 | 1020.8 |
| 20260831101820 | 21 | 149 | 0.0 | 1.6 | 0.00 | 0.00 | 0.00 | 97 | 1020.4 |
| 20260831101314 | 21 | 201 | 0.0 | 3.2 | 0.00 | 0.00 | 0.00 | 97 | 1020.3 |
| 20260831100810 | 21 | 162 | 3.2 | 3.2 | 0.00 | 0.00 | 0.00 | 96 | 1020.4 |
| 20260831100306 | 21 | 140 | 1.6 | 3.2 | 0.00 | 0.00 | 0.00 | 96 | 1020.4 |
| 20260831095805 | 22 | 144 | 0.0 | 1.6 | 0.00 | 0.00 | 0.00 | 96 | 1020.2 |
| 20260831095300 | 22 | 119 | 0.0 | 1.6 | 0.00 | 0.00 | 0.00 | 96 | 1020.2 |
| 20260831094755 | 22 | 142 | 1.6 | 1.6 | 0.00 | 0.00 | 0.00 | 96 | 1020.2 |
| 20260831094250 | 22 | 115 | 0.0 | 0.0 | 0.00 | 0.00 | 0.00 | 96 | 1020.2 |
| 20260831093747 | 22 | 150 | 1.6 | 3.2 | 0.00 | 0.00 | 0.00 | 95 | 1020.2 |
| 20260831093246 | 22 | 162 | 1.6 | 3.2 | 0.00 | 0.00 | 0.00 | 95 | 1020.2 |
| 20260831092743 | 22 | 172 | 0.0 | 0.0 | 0.00 | 0.00 | 0.00 | 95 | 1020.2 |
| 20260831092238 | 22 | 92 | 0.0 | 0.0 | 0.00 | 0.00 | 0.00 | 95 | 1020.2 |
| 20260831091737 | 22 | 79 | 0.0 | 0.0 | 0.00 | 0.00 | 0.00 | 95 | 1020.2 |
| 20260831091234 | 22 | 153 | 1.6 | 1.6 | 0.00 | 0.00 | 0.00 | 95 | 1020.1 |
| 20260831090729 | 22 | 172 | 1.6 | 3.2 | 0.00 | 0.00 | 0.00 | 95 | 1020.0 |
| 20260831090225 | 22 | 146 | 0.0 | 3.2 | 0.00 | 0.00 | 0.00 | 94 | 1020.3 |
| 20260831085721 | 22 | 141 | 1.6 | 1.6 | 0.00 | 0.00 | 0.00 | 95 | 1020.2 |
| 20260831085215 | 22 | 149 | 0.0 | 1.6 | 0.00 | 0.00 | 0.00 | 95 | 1020.1 |
| 20260831084710 | 22 | 143 | 0.0 | 1.6 | 0.00 | 0.00 | 0.00 | 95 | 1020.0 |
| 20260831084207 | 22 | 147 | 0.0 | 1.6 | 0.00 | 0.00 | 0.00 | 94 | 1020.3 |
| 20260831083703 | 22 | 151 | 0.0 | 1.6 | 0.00 | 0.00 | 0.00 | 94 | 1020.0 |
| 20260831083158 | 22 | 147 | 0.0 | 1.6 | 0.00 | 0.00 | 0.00 | 93 | 1020.2 |
| 20260831082656 | 22 | 147 | 0.0 | 1.6 | 0.00 | 0.00 | 0.00 | 93 | 1020.3 |
| 20260831082152 | 22 | 172 | 0.0 | 1.6 | 0.00 | 0.00 | 0.00 | 93 | 1020.1 |
| 20260831081647 | 22 | 147 | 0.0 | 0.0 | 0.00 | 0.00 | 0.00 | 93 | 1020.2 |
| 20260831081143 | 22 | 133 | 0.0 | 1.6 | 0.00 | 0.00 | 0.00 | 93 | 1020.1 |
| 20260831080638 | 22 | 115 | 0.0 | 1.6 | 0.00 | 0.00 | 0.00 | 94 | 1020.2 |
| 20260831080127 | 22 | 139 | 1.6 | 3.2 | 0.00 | 0.00 | 0.00 | 94 | 1020.1 |
| 20260831075624 | 22 | 80 | 0.0 | 1.6 | 0.00 | 0.00 | 0.00 | 95 | 1020.1 |
| 20260831075119 | 22 | 169 | 0.0 | 3.2 | 0.00 | 0.00 | 0.00 | 95 | 1020.2 |
| 20260831074618 | 22 | 151 | 0.0 | 0.0 | 0.00 | 0.00 | 0.00 | 95 | 1020.2 |
| 20260831074113 | 22 | 149 | 0.0 | 1.6 | 0.00 | 0.00 | 0.00 | 95 | 1020.2 |
| 20260831073608 | 22 | 157 | 0.0 | 1.6 | 0.00 | 0.00 | 0.00 | 94 | 1020.2 |
| 20260831073107 | 22 | 136 | 1.6 | 1.6 | 0.00 | 0.00 | 0.00 | 95 | 1020.2 |
| 20260831072602 | 22 | 141 | 1.6 | 3.2 | 0.00 | 0.00 | 0.00 | 95 | 1020.1 |
| 20260831072059 | 22 | 167 | 0.0 | 3.2 | 0.00 | 0.00 | 0.00 | 95 | 1020.4 |
| 20260831071557 | 22 | 159 | 0.0 | 1.6 | 0.00 | 0.00 | 0.00 | 95 | 1020.3 |
| 20260831071053 | 22 | 45 | 0.0 | 0.0 | 0.00 | 0.00 | 0.00 | 95 | 1020.2 |
| 20260831070551 | 22 | 154 | 0.0 | 1.6 | 0.00 | 0.00 | 0.00 | 95 | 1020.2 |
| 20260831070046 | 22 | 159 | 0.0 | 3.2 | 0.00 | 0.00 | 0.00 | 95 | 1020.6 |
| 20260831065544 | 22 | 146 | 0.0 | 3.2 | 0.00 | 0.00 | 0.00 | 95 | 1020.3 |
| 20260831065039 | 22 | 138 | 3.2 | 3.2 | 0.00 | 0.00 | 0.00 | 95 | 1020.5 |
| 20260831064534 | 22 | 92 | 0.0 | 1.6 | 0.00 | 0.00 | 0.00 | 95 | 1020.3 |
| 20260831064029 | 22 | 80 | 0.0 | 0.0 | 0.00 | 0.00 | 0.00 | 95 | 1020.5 |
| 20260831063525 | 22 | 159 | 0.0 | 1.6 | 0.00 | 0.00 | 0.00 | 95 | 1020.5 |
| 20260831063020 | 22 | 129 | 0.0 | 3.2 | 0.00 | 0.00 | 0.00 | 95 | 1020.6 |
| 20260831062514 | 22 | 150 | 1.6 | 1.6 | 0.00 | 0.00 | 0.00 | 95 | 1020.6 |
| 20260831062014 | 22 | 140 | 1.6 | 3.2 | 0.00 | 0.00 | 0.00 | 95 | 1020.5 |
| 20260831061512 | 22 | 146 | 1.6 | 3.2 | 0.00 | 0.00 | 0.00 | 95 | 1020.4 |
| 20260831061008 | 22 | 156 | 1.6 | 1.6 | 0.00 | 0.00 | 0.00 | 95 | 1020.3 |
| 20260831060503 | 22 | 74 | 0.0 | 1.6 | 0.00 | 0.00 | 0.00 | 95 | 1020.6 |
| 20260831060002 | 22 | 85 | 0.0 | 1.6 | 0.00 | 0.00 | 0.00 | 96 | 1020.6 |
| 20260831055457 | 22 | 154 | 0.0 | 1.6 | 0.00 | 0.00 | 0.00 | 95 | 1020.6 |
| 20260831054954 | 22 | 136 | 1.6 | 3.2 | 0.00 | 0.00 | 0.00 | 95 | 1020.8 |
| 20260831054453 | 22 | 148 | 3.2 | 3.2 | 0.00 | 0.00 | 0.00 | 95 | 1020.7 |
| 20260831053953 | 22 | 143 | 0.0 | 1.6 | 0.00 | 0.00 | 0.00 | 95 | 1020.9 |
| 20260831053451 | 22 | 128 | 0.0 | 3.2 | 0.00 | 0.00 | 0.00 | 95 | 1020.8 |
| 20260831052945 | 22 | 143 | 1.6 | 3.2 | 0.00 | 0.00 | 0.00 | 95 | 1020.9 |
| 20260831052439 | 22 | 144 | 1.6 | 3.2 | 0.00 | 0.00 | 0.00 | 95 | 1020.8 |
| 20260831051938 | 22 | 136 | 1.6 | 3.2 | 0.00 | 0.00 | 0.00 | 94 | 1020.8 |
| 20260831051437 | 23 | 146 | 0.0 | 1.6 | 0.00 | 0.00 | 0.00 | 94 | 1020.9 |
| 20260831050932 | 23 | 147 | 1.6 | 3.2 | 0.00 | 0.00 | 0.00 | 93 | 1020.7 |
| 20260831050431 | 23 | 147 | 0.0 | 0.0 | 0.00 | 0.00 | 0.00 | 93 | 1020.8 |
| 20260831045930 | 23 | 147 | 0.0 | 0.0 | 0.00 | 0.00 | 0.00 | 93 | 1021.0 |
| 20260831045429 | 23 | 147 | 0.0 | 1.6 | 0.00 | 0.00 | 0.00 | 93 | 1021.1 |
| 20260831044924 | 23 | 138 | 0.0 | 1.6 | 0.00 | 0.00 | 0.00 | 92 | 1021.0 |
| 20260831044420 | 23 | 157 | 0.0 | 0.0 | 0.00 | 0.00 | 0.00 | 92 | 1020.9 |
| 20260831043915 | 23 | 149 | 0.0 | 1.6 | 0.00 | 0.00 | 0.00 | 92 | 1020.8 |
| 20260831043415 | 23 | 143 | 0.0 | 1.6 | 0.00 | 0.00 | 0.00 | 92 | 1021.1 |
| 20260831042911 | 23 | 125 | 1.6 | 3.2 | 0.00 | 0.00 | 0.00 | 92 | 1021.0 |
| 20260831042410 | 23 | 159 | 0.0 | 1.6 | 0.00 | 0.00 | 0.00 | 93 | 1021.0 |
| 20260831041905 | 23 | 133 | 0.0 | 1.6 | 0.00 | 0.00 | 0.00 | 93 | 1021.2 |
| 20260831041404 | 23 | 162 | 0.0 | 1.6 | 0.00 | 0.00 | 0.00 | 93 | 1021.3 |
| 20260831040859 | 23 | 154 | 0.0 | 0.0 | 0.00 | 0.00 | 0.00 | 93 | 1021.0 |
| 20260831040354 | 23 | 160 | 0.0 | 1.6 | 0.00 | 0.00 | 0.00 | 93 | 1021.1 |
| 20260831035852 | 23 | 119 | 0.0 | 0.0 | 0.00 | 0.00 | 0.00 | 92 | 1021.2 |
| 20260831035351 | 23 | 184 | 0.0 | 3.2 | 0.00 | 0.00 | 0.00 | 92 | 1021.1 |
| 20260831034846 | 23 | 152 | 1.6 | 3.2 | 0.00 | 0.00 | 0.00 | 91 | 1021.1 |
| 20260831034341 | 24 | 140 | 1.6 | 3.2 | 0.00 | 0.00 | 0.00 | 90 | 1021.1 |
| 20260831033836 | 23 | 194 | 0.0 | 0.0 | 0.00 | 0.00 | 0.00 | 90 | 1021.0 |
| 20260831033336 | 24 | 194 | 0.0 | 1.6 | 0.00 | 0.00 | 0.00 | 90 | 1021.2 |
| 20260831032831 | 24 | 184 | 0.0 | 1.6 | 0.00 | 0.00 | 0.00 | 90 | 1021.0 |
| 20260831032325 | 24 | 194 | 0.0 | 0.0 | 0.00 | 0.00 | 0.00 | 90 | 1021.2 |
| 20260831031821 | 23 | 165 | 0.0 | 0.0 | 0.00 | 0.00 | 0.00 | 90 | 1021.2 |
| 20260831031320 | 23 | 165 | 0.0 | 0.0 | 0.00 | 0.00 | 0.00 | 90 | 1021.3 |
| 20260831030816 | 23 | 171 | 0.0 | 1.6 | 0.00 | 0.00 | 0.00 | 90 | 1021.3 |
| 20260831030314 | 23 | 143 | 0.0 | 1.6 | 0.00 | 0.00 | 0.00 | 90 | 1021.4 |
| 20260831025808 | 23 | 147 | 0.0 | 1.6 | 0.00 | 0.00 | 0.00 | 90 | 1021.2 |
| 20260831025306 | 23 | 175 | 1.6 | 3.2 | 0.00 | 0.00 | 0.00 | 91 | 1021.4 |
| 20260831024758 | 23 | 160 | 0.0 | 3.2 | 0.00 | 0.00 | 0.00 | 92 | 1021.2 |
| 20260831024257 | 23 | 179 | 0.0 | 1.6 | 0.00 | 0.00 | 0.00 | 92 | 1021.3 |
| 20260831023756 | 23 | 160 | 0.0 | 1.6 | 0.00 | 0.00 | 0.00 | 92 | 1021.4 |
| 20260831023254 | 23 | 172 | 0.0 | 0.0 | 0.00 | 0.00 | 0.00 | 92 | 1021.2 |
| 20260831022750 | 23 | 152 | 1.6 | 1.6 | 0.00 | 0.00 | 0.00 | 92 | 1021.2 |
| 20260831022249 | 23 | 101 | 0.0 | 3.2 | 0.00 | 0.00 | 0.00 | 92 | 1021.2 |
| 20260831021744 | 23 | 131 | 1.6 | 3.2 | 0.00 | 0.00 | 0.00 | 92 | 1021.3 |
| 20260831021243 | 23 | 172 | 0.0 | 3.2 | 0.00 | 0.00 | 0.00 | 92 | 1021.4 |
| 20260831020740 | 23 | 91 | 0.0 | 1.6 | 0.00 | 0.00 | 0.00 | 91 | 1021.2 |
| 20260831020239 | 23 | 147 | 0.0 | 0.0 | 0.00 | 0.00 | 0.00 | 91 | 1021.1 |
| 20260831015735 | 23 | 147 | 0.0 | 1.6 | 0.00 | 0.00 | 0.00 | 91 | 1021.2 |
| 20260831015230 | 23 | 154 | 0.0 | 1.6 | 0.00 | 0.00 | 0.00 | 91 | 1021.2 |
| 20260831014725 | 23 | 161 | 0.0 | 1.6 | 0.00 | 0.00 | 0.00 | 91 | 1021.3 |
| 20260831014220 | 23 | 163 | 1.6 | 3.2 | 0.00 | 0.00 | 0.00 | 91 | 1021.3 |
| 20260831013717 | 23 | 148 | 0.0 | 1.6 | 0.00 | 0.00 | 0.00 | 91 | 1021.4 |
| 20260831013215 | 24 | 150 | 0.0 | 1.6 | 0.00 | 0.00 | 0.00 | 91 | 1021.1 |
| 20260831012711 | 24 | 172 | 0.0 | 1.6 | 0.00 | 0.00 | 0.00 | 91 | 1021.1 |
| 20260831012206 | 24 | 159 | 1.6 | 3.2 | 0.00 | 0.00 | 0.00 | 90 | 1021.3 |
| 20260831011705 | 24 | 154 | 0.0 | 1.6 | 0.00 | 0.00 | 0.00 | 89 | 1021.4 |
| 20260831011201 | 24 | 184 | 0.0 | 1.6 | 0.00 | 0.00 | 0.00 | 89 | 1021.3 |
| 20260831010657 | 24 | 159 | 0.0 | 1.6 | 0.00 | 0.00 | 0.00 | 89 | 1021.4 |
| 20260831010152 | 24 | 166 | 1.6 | 3.2 | 0.00 | 0.00 | 0.00 | 89 | 1021.4 |
| 20260831005651 | 25 | 184 | 0.0 | 1.6 | 0.00 | 0.00 | 0.00 | 88 | 1021.1 |
| 20260831005147 | 25 | 176 | 0.0 | 1.6 | 0.00 | 0.00 | 0.00 | 88 | 1021.1 |
| 20260831004642 | 25 | 156 | 0.0 | 1.6 | 0.00 | 0.00 | 0.00 | 88 | 1020.8 |
| 20260831004138 | 25 | 152 | 0.0 | 1.6 | 0.00 | 0.00 | 0.00 | 88 | 1020.9 |
| 20260831003634 | 25 | 162 | 1.6 | 1.6 | 0.00 | 0.00 | 0.00 | 87 | 1020.7 |
| 20260831003130 | 25 | 156 | 1.6 | 1.6 | 0.00 | 0.00 | 0.00 | 86 | 1020.6 |
| 20260831002628 | 25 | 149 | 1.6 | 3.2 | 0.00 | 0.00 | 0.00 | 86 | 1020.7 |
| 20260831002124 | 25 | 160 | 1.6 | 3.2 | 0.00 | 0.00 | 0.00 | 85 | 1020.3 |
| 20260831001619 | 25 | 171 | 0.0 | 0.0 | 0.00 | 0.00 | 0.00 | 84 | 1020.5 |
| 20260831001115 | 26 | 184 | 0.0 | 0.0 | 0.00 | 0.00 | 0.00 | 83 | 1020.4 |
| 20260831000612 | 26 | 154 | 0.0 | 1.6 | 0.00 | 0.00 | 0.00 | 83 | 1020.4 |
| 20260831000111 | 26 | 152 | 0.0 | 1.6 | 0.00 | 0.00 | 0.00 | 82 | 1020.3 |
| 20260830235610 | 26 | 165 | 1.6 | 3.2 | 0.00 | 0.00 | 0.00 | 80 | 1020.4 |
| 20260830235105 | 26 | 170 | 0.0 | 1.6 | 0.00 | 0.00 | 0.00 | 81 | 1020.3 |
| 20260830234600 | 27 | 177 | 1.6 | 1.6 | 0.00 | 0.00 | 0.00 | 80 | 1020.3 |
| 20260830234055 | 27 | 174 | 0.0 | 0.0 | 0.00 | 0.00 | 0.00 | 78 | 1020.2 |
| 20260830233550 | 27 | 209 | 0.0 | 1.6 | 0.00 | 0.00 | 0.00 | 77 | 1020.3 |
| 20260830233046 | 27 | 177 | 0.0 | 1.6 | 0.00 | 0.00 | 0.00 | 77 | 1020.6 |
| 20260830232542 | 28 | 159 | 0.0 | 0.0 | 0.00 | 0.00 | 0.00 | 74 | 1020.6 |
| 20260830232038 | 28 | 184 | 0.0 | 1.6 | 0.00 | 0.00 | 0.00 | 72 | 1020.8 |
| 20260830231534 | 28 | 184 | 0.0 | 0.0 | 0.00 | 0.00 | 0.00 | 70 | 1020.6 |
| 20260830231033 | 28 | 156 | 0.0 | 0.0 | 0.00 | 0.00 | 0.00 | 68 | 1020.6 |
| 20260830230528 | 28 | 265 | 0.0 | 0.0 | 0.00 | 0.00 | 0.00 | 68 | 1020.7 |
| 20260830230023 | 29 | 265 | 0.0 | 0.0 | 0.00 | 0.00 | 0.00 | 67 | 1020.5 |
| 20260830225518 | 29 | 172 | 0.0 | 1.6 | 0.00 | 0.00 | 0.00 | 67 | 1020.6 |
| 20260830225017 | 29 | 147 | 0.0 | 0.0 | 0.00 | 0.00 | 0.00 | 66 | 1020.4 |
| 20260830224516 | 30 | 299 | 0.0 | 0.0 | 0.00 | 0.00 | 0.00 | 64 | 1020.5 |
| 20260830224013 | 30 | 248 | 3.2 | 4.8 | 0.00 | 0.00 | 0.00 | 61 | 1020.6 |
| 20260830223510 | 30 | 180 | 0.0 | 1.6 | 0.00 | 0.00 | 0.00 | 63 | 1020.4 |
| 20260830223009 | 30 | 254 | 0.0 | 3.2 | 0.00 | 0.00 | 0.00 | 63 | 1020.4 |
| 20260830222504 | 30 | 147 | 1.6 | 1.6 | 0.00 | 0.00 | 0.00 | 62 | 1020.4 |
| 20260830222000 | 30 | 170 | 0.0 | 1.6 | 0.00 | 0.00 | 0.00 | 61 | 1020.6 |
| 20260830221455 | 30 | 274 | 0.0 | 1.6 | 0.00 | 0.00 | 0.00 | 61 | 1020.5 |
| 20260830220945 | 30 | 133 | 1.6 | 3.2 | 0.00 | 0.00 | 0.00 | 61 | 1020.6 |
| 20260830220445 | 30 | 246 | 0.0 | 0.0 | 0.00 | 0.00 | 0.00 | 62 | 1020.4 |
| 20260830215943 | 30 | 192 | 0.0 | 1.6 | 0.00 | 0.00 | 0.00 | 62 | 1020.5 |
| 20260830215438 | 30 | 178 | 0.0 | 1.6 | 0.00 | 0.00 | 0.00 | 62 | 1020.4 |
| 20260830214933 | 30 | 336 | 0.0 | 1.6 | 0.00 | 0.00 | 0.00 | 62 | 1020.5 |
| 20260830214428 | 30 | 242 | 1.6 | 3.2 | 0.00 | 0.00 | 0.00 | 62 | 1020.5 |
| 20260830213922 | 30 | 174 | 0.0 | 3.2 | 0.00 | 0.00 | 0.00 | 62 | 1020.4 |
| 20260830213418 | 30 | 119 | 0.0 | 3.2 | 0.00 | 0.00 | 0.00 | 61 | 1020.6 |
| 20260830212913 | 30 | 254 | 0.0 | 1.6 | 0.00 | 0.00 | 0.00 | 60 | 1020.4 |
| 20260830212409 | 30 | 270 | 3.2 | 3.2 | 0.00 | 0.00 | 0.00 | 61 | 1020.4 |
| 20260830211908 | 30 | 166 | 4.8 | 4.8 | 0.00 | 0.00 | 0.00 | 60 | 1020.4 |
| 20260830211402 | 30 | 159 | 0.0 | 3.2 | 0.00 | 0.00 | 0.00 | 63 | 1020.4 |
| 20260830210858 | 30 | 156 | 0.0 | 3.2 | 0.00 | 0.00 | 0.00 | 62 | 1020.1 |
| 20260830210357 | 30 | 266 | 0.0 | 3.2 | 0.00 | 0.00 | 0.00 | 62 | 1020.2 |
| 20260830205855 | 31 | 79 | 1.6 | 3.2 | 0.00 | 0.00 | 0.00 | 61 | 1020.3 |
| 20260830205354 | 31 | 134 | 1.6 | 3.2 | 0.00 | 0.00 | 0.00 | 61 | 1020.3 |
| 20260830204850 | 30 | 161 | 1.6 | 3.2 | 0.00 | 0.00 | 0.00 | 62 | 1020.4 |
| 20260830204349 | 30 | 268 | 0.0 | 3.2 | 0.00 | 0.00 | 0.00 | 62 | 1020.4 |